Showing default

COSMOS 2141 (GLONASS), 21218

Orbit data source: Space-Track

COSMOS 2141 (GLONASS), 21218 is a payload satellite owned by UNKS RF (CIS) in MEO that was launched on Thu, 04 Apr 1991 UTC via a PROTON-K/DM-2 launch vehicle from the Tyuratam Missile And Space Complex (TTMTR). Payload-class satellites include a variety of spacecraft equipped with specific instruments for various scientific and technological missions. These include communications satellites like Starlink; space stations such as the ISS; scientific satellites like the Hubble; Earth observation satellites from companies like Planet Labs, Umbra, and HawkEye 360; GPS; miniature CubeSats for education and research; and military/defense satellites.

Loading next visibility...
Identifier
21218, 1991-025C
Orbit
MEO
Country
Flag of CISCIS
Related business
Manufacturer
Polyot
Mission
Non-operational Defense Navigation
Bus & Motor
URAGAN, Unknown motor
Mass
1,300 kg wet, ~1,200 kg dry
Launch date (UTC)
1991-04-04 (35 years ago)
Launch vehicle
PROTON-K/DM-2
Launch site
Tyuratam Missile And Space Complex (TTMTR)
Object type
Payload
Rocket body
Debris
Shape & HBR
Cyl + 2 Pan, 4.2 m
Radar Cross Section
14.707 m², Large (>1 m²)

Expand to show TLE details & history
Last TLE update: 4 days ago

TLE from 4 days ago
0 COSMOS 2141 (GLONASS)
1 21218U 91025C   26169.57702228 -.00000052  00000-0  00000-0 0  9996
2 21218  64.3438 304.1428 0005549 224.9055 133.2303  2.13103050273996
Epoch: 2026-06-18T13:50Z
TLE epoch observation values (Epoch: 2026-06-18T13:50:54.724Z)
Latitude
-1.63619°
Longitude
-171.20431°
Altitude
19,140.272 km
Speed
3.952 km/s
True Right ascension
20h 13m 22s
True Declination
-1° 38' 00"
Sunlit
Object was in daylight at epoch
Visualization orbit readout
Latitude
Unknown
Longitude
Unknown
Altitude
Unknown
Speed
Unknown
Apparent Right ascension
Unknown
Apparent Declination
Unknown
Sunlit
N/A
Visualization observer readout
Local Sidereal Time
00:39:44
Azimuth
Unknown
Elevation
Unknown
Doppler factor
Unknown
Orbital elements
Apogee altitude
19,143.596 km
Perigee altitude
19,115.287 km
Semi-major axis
25,507.578 km
Eccentricity
0.00055
Inclination
64.3438°
RAAN
304.1428°
Arg. of periapsis
224.9055°
True anomaly
133.27661°
Mean anomaly
133.2303°
Eccentric anomaly
133.25346°
Mean motion
0.53277 °/min
Orbital period
675.71 mins
BSTAR
0
Loading maneuver chart data...
Computing Atmospheric mass density...
Loading historical data...
Loading historical data...
Loading historical data...
Loading historical data...
Loading historical data...
Loading historical data...
Loading historical data...

Documentation

Showing up to 5 results
|